Weather History for Erie, CO

Change the Weather History Date:

Tuesday, March 19, 2013

  Actual Average (KBJC) Record (KBJC)
Temperature  
Mean Temperature 40 °F -  
Max Temperature 55 °F 52 °F 77 °F (2004)
Min Temperature 25 °F 32 °F 19 °F (1998)
Degree Days  
Heating Degree Days 25    
Moisture  
Dew Point 5 °F    
Average Humidity 27    
Maximum Humidity 72    
Minimum Humidity 8    
Precipitation  
Precipitation 0.00 in - - ()
Sea Level Pressure  
Sea Level Pressure 30.08 in    
Wind  
Wind Speed 9 mph (NNE)    
Max Wind Speed 22 mph    
Max Gust Speed 33 mph    
Visibility 10 miles    
Events      
Averages and records for this station are not official NWS values.
T = Trace of Precipitation, MM = Missing Value Source: NWS Daily Summary

Daily Weather History Graph

Daily Weather History Graph

Search for Another Location

Airport:

Trip Planner

Search our weather history database for the weather conditions in past years. The results will help you decide how hot, cold, wet, or windy it might be!

Date:

Astronomy

Mar. 19, 2013 Rise Set
Actual Time 7:04 AM MDT 7:11 PM MDT
Civil Twilight 6:37 AM MDT 7:38 PM MDT
Nautical Twilight 6:06 AM MDT 8:10 PM MDT
Astronomical Twilight 5:34 AM MDT 8:42 PM MDT
Moon 11:57 AM MDT (3/19) 2:00 AM MDT (3/19)
Length of Visible Light 13h 00m
Length of Day
12h 06m
Waxing Crescent, 50% of the Moon is Illuminated
Mar 19
Waxing Crescent
Mar 27
Full
Apr 2
Last Quarter
Apr 10
New
Apr 18
First Quarter

Hourly Weather History & Observations

Time (MDT) Temp. Windchill Dew Point Humidity Pressure Visibility Wind Dir Wind Speed Gust Speed Precip Events Conditions
12:16 AM 31.5 °F 26.8 °F 18.5 °F 59% 29.92 in 10.0 mi South 4.6 mph - N/A   Clear
12:36 AM 31.5 °F 28.1 °F 18.5 °F 59% 29.92 in 10.0 mi SSW 3.5 mph - N/A   Clear
12:56 AM 30.0 °F 26.5 °F 19.0 °F 64% 29.92 in 10.0 mi NW 3.5 mph - N/A   Clear
1:16 AM 32.2 °F 27.7 °F 16.9 °F 53% 29.92 in 10.0 mi WNW 4.6 mph - N/A   Clear
1:36 AM 36.5 °F 31.8 °F 13.3 °F 39% 29.93 in 10.0 mi West 5.8 mph - N/A   Clear
1:56 AM 38.8 °F 34.6 °F 10.8 °F 32% 29.93 in 10.0 mi West 5.8 mph - N/A   Clear
2:16 AM 39.7 °F 33.7 °F 9.5 °F 29% 29.93 in 10.0 mi WSW 9.2 mph - N/A   Clear
2:36 AM 39.4 °F 34.5 °F 9.1 °F 29% 29.93 in 10.0 mi West 6.9 mph - N/A   Clear
2:56 AM 39.0 °F 31.4 °F 8.2 °F 28% 29.93 in 10.0 mi WNW 12.7 mph 20.7 mph N/A   Clear
3:16 AM 41.2 °F 31.9 °F 5.5 °F 23% 29.94 in 10.0 mi WNW 20.7 mph 27.6 mph N/A   Clear
3:36 AM 42.1 °F 33.9 °F 4.3 °F 21% 29.93 in 10.0 mi WNW 17.3 mph 27.6 mph N/A   Clear
3:56 AM 42.3 °F 35.1 °F 3.2 °F 20% 29.94 in 10.0 mi WNW 13.8 mph 32.2 mph N/A   Clear
4:16 AM 41.2 °F 32.4 °F 3.6 °F 21% 29.94 in 10.0 mi WNW 18.4 mph 31.1 mph N/A   Clear
4:36 AM 42.1 °F 33.1 °F 2.7 °F 19% 29.94 in 10.0 mi WNW 20.7 mph 33.4 mph N/A   Clear
4:56 AM 41.4 °F 32.1 °F 2.3 °F 20% 29.95 in 10.0 mi WNW 20.7 mph 31.1 mph N/A   Clear
5:16 AM 41.9 °F 32.6 °F 0.7 °F 18% 29.96 in 10.0 mi WNW 21.9 mph 28.8 mph N/A   Clear
5:36 AM 41.4 °F 32.7 °F -0.0 °F 18% 29.97 in 10.0 mi WNW 18.4 mph 28.8 mph N/A   Clear
5:56 AM 38.8 °F 31.2 °F 0.9 °F 20% 29.99 in 10.0 mi WNW 12.7 mph 18.4 mph N/A   Clear
6:16 AM 34.9 °F 29.0 °F 3.7 °F 27% 30.00 in 10.0 mi NNW 6.9 mph - N/A   Clear
6:36 AM 36.5 °F 27.8 °F 0.5 °F 22% 30.01 in 10.0 mi NW 13.8 mph 18.4 mph N/A   Clear
6:56 AM 36.0 °F 28.5 °F 2.8 °F 25% 30.02 in 10.0 mi North 10.4 mph - N/A   Clear
7:16 AM 35.8 °F 26.1 °F 3.0 °F 25% 30.04 in 10.0 mi NNW 16.1 mph 20.7 mph N/A   Clear
7:36 AM 38.1 °F 28.8 °F -0.6 °F 20% 30.05 in 10.0 mi NNW 17.3 mph 23.0 mph N/A   Clear
7:56 AM 39.4 °F 30.1 °F -2.4 °F 17% 30.06 in 10.0 mi NNW 18.4 mph 25.3 mph N/A   Clear
8:16 AM 40.6 °F 34.3 °F -1.5 °F 17% 30.06 in 10.0 mi NNW 10.4 mph - N/A   Clear
8:36 AM 41.7 °F 34.4 °F -3.6 °F 15% 30.07 in 10.0 mi NNE 13.8 mph 21.9 mph N/A   Clear
8:56 AM 39.2 °F 31.6 °F 3.6 °F 23% 30.09 in 10.0 mi North 12.7 mph 16.1 mph N/A   Clear
9:16 AM 38.3 °F 29.7 °F 5.5 °F 26% 30.09 in 10.0 mi NE 15.0 mph 19.6 mph N/A   Clear
9:36 AM 37.6 °F 30.5 °F 9.1 °F 31% 30.11 in 10.0 mi NE 10.4 mph - N/A   Clear
9:56 AM 37.8 °F 31.3 °F 11.3 °F 34% 30.11 in 10.0 mi East 9.2 mph - N/A   Clear
10:16 AM 38.8 °F 32.1 °F 11.1 °F 32% 30.11 in 10.0 mi East 10.4 mph - N/A   Clear
10:36 AM 39.4 °F 31.8 °F 11.5 °F 32% 30.11 in 10.0 mi East 12.7 mph - N/A   Clear
10:56 AM 40.6 °F 36.0 °F 10.9 °F 30% 30.11 in 10.0 mi East 6.9 mph - N/A   Clear
11:16 AM 41.2 °F 35.0 °F 11.8 °F 30% 30.11 in 10.0 mi East 10.4 mph - N/A   Clear
11:36 AM 43.5 °F 37.5 °F 10.8 °F 26% 30.11 in 10.0 mi East 11.5 mph - N/A   Clear
12:16 PM 45.9 °F 40.8 °F 9.1 °F 22% 30.09 in 10.0 mi ESE 10.4 mph - N/A   Clear
12:36 PM 47.1 °F - 7.2 °F 20% 30.09 in 10.0 mi SE 9.2 mph - N/A   Clear
12:56 PM 48.7 °F - 8.2 °F 19% 30.09 in 10.0 mi SE 13.8 mph - N/A   Clear
1:16 PM 48.9 °F - 5.0 °F 17% 30.08 in 10.0 mi SSE 11.5 mph 17.3 mph N/A   Clear
1:36 PM 49.6 °F - 4.3 °F 16% 30.08 in 10.0 mi SE 11.5 mph 17.3 mph N/A   Clear
1:56 PM 51.1 °F - 2.3 °F 14% 30.07 in 10.0 mi SSE 6.9 mph - N/A   Clear
2:16 PM 51.3 °F - -2.7 °F 11% 30.07 in 10.0 mi WNW 4.6 mph - N/A   Clear
2:36 PM 53.1 °F - -3.6 °F 10% 30.06 in 10.0 mi North 5.8 mph - N/A   Clear
2:56 PM 53.2 °F - -4.4 °F 9% 30.06 in 10.0 mi NNW 3.5 mph 10.4 mph N/A   Clear
3:16 PM 55.2 °F - -7.1 °F 8% 30.06 in 10.0 mi SSW 3.5 mph 18.4 mph N/A   Clear
3:36 PM 53.8 °F - -0.4 °F 11% 30.06 in 10.0 mi ESE 10.4 mph 16.1 mph N/A   Clear
3:56 PM 54.5 °F - 0.1 °F 11% 30.06 in 10.0 mi East 12.7 mph - N/A   Clear
4:16 PM 54.5 °F - -0.4 °F 11% 30.07 in 10.0 mi East 11.5 mph - N/A   Clear
4:36 PM 54.7 °F - -2.4 °F 10% 30.07 in 10.0 mi ESE 6.9 mph - N/A   Clear
4:56 PM 54.1 °F - -1.8 °F 10% 30.08 in 10.0 mi East 11.5 mph - N/A   Clear
5:16 PM 53.2 °F - -3.1 °F 10% 30.08 in 10.0 mi East 11.5 mph - N/A   Clear
5:36 PM 53.6 °F - -2.0 °F 10% 30.10 in 10.0 mi ESE 6.9 mph 10.4 mph N/A   Clear
5:56 PM 52.7 °F - -4.4 °F 9% 30.10 in 10.0 mi East 9.2 mph - N/A   Clear
6:16 PM 52.3 °F - -4.7 °F 9% 30.11 in 10.0 mi East 4.6 mph - N/A   Clear
6:36 PM 50.9 °F - -4.9 °F 10% 30.12 in 10.0 mi East 6.9 mph - N/A   Clear
6:56 PM 47.7 °F - -3.1 °F 12% 30.13 in 10.0 mi ESE 6.9 mph - N/A   Clear
7:36 PM 42.8 °F 38.0 °F 0.9 °F 17% 30.16 in 10.0 mi SSW 8.1 mph - N/A   Clear
7:56 PM 47.8 °F - -8.3 °F 9% 30.17 in 10.0 mi ESE 6.9 mph 16.1 mph N/A   Clear
8:16 PM 43.2 °F 39.0 °F -3.5 °F 14% 30.21 in 10.0 mi East 6.9 mph - N/A   Clear
8:36 PM 39.7 °F 33.2 °F 5.9 °F 25% 30.23 in 10.0 mi ENE 10.4 mph - N/A   Clear
8:56 PM 36.1 °F 28.7 °F 10.4 °F 35% 30.25 in 10.0 mi ENE 10.4 mph 19.6 mph N/A   Clear
9:16 PM 34.2 °F 31.2 °F 12.6 °F 41% 30.28 in 10.0 mi ENE 3.5 mph - N/A   Clear
9:36 PM 33.1 °F 28.7 °F 15.4 °F 48% 30.32 in 10.0 mi NE 4.6 mph - N/A   Clear
9:56 PM 32.0 °F 28.7 °F 16.0 °F 52% 30.33 in 10.0 mi North 3.5 mph - N/A   Clear
10:16 PM 30.6 °F - 16.5 °F 56% 30.34 in 10.0 mi Calm Calm - N/A   Clear
10:36 PM 28.2 °F 21.0 °F 16.9 °F 63% 30.35 in 10.0 mi NNW 6.9 mph - N/A   Clear
10:56 PM 26.1 °F 21.9 °F 17.4 °F 70% 30.35 in 10.0 mi North 3.5 mph - N/A   Clear
11:16 PM 25.5 °F - 17.8 °F 72% 30.35 in 10.0 mi Calm Calm - N/A   Clear
11:36 PM 26.6 °F - 18.1 °F 70% 30.35 in 10.0 mi Calm Calm - N/A   Clear
11:56 PM 27.0 °F - 18.0 °F 69% 30.34 in 10.0 mi Calm Calm - N/A   Clear